Location: Albany
(35.0000°S, 118.0000°E)
Time: 23:38:26
(UTC-04:00)

SJ-6B - Visible Passes

Search period start: 25 October 2014 00:00
Search period end: 03 November 2014 23:00
Orbit: 518 x 598 km, 97.8° (Epoch: 24 October)

Date Brightness Start Highest point End Pass type
(mag) Time Alt. Az. Time Alt. Az. Time Alt. Az.
25 Oct 5.9 07:17:28 10° SSW 07:20:48 23° WSW 07:24:06 10° WNW visible
26 Oct 5.8 07:15:36 10° SSW 07:19:00 24° WSW 07:22:23 10° WNW visible
27 Oct 5.7 07:13:43 10° SSW 07:17:12 25° WSW 07:20:39 10° NW visible
28 Oct 5.6 07:11:50 10° SSW 07:15:24 26° WSW 07:18:55 10° NW visible
29 Oct 5.5 07:09:57 10° SSW 07:13:34 27° WSW 07:17:09 10° NW visible
30 Oct 5.4 07:08:03 10° SSW 07:11:44 29° WSW 07:15:22 10° NW visible
31 Oct 5.3 07:06:09 10° S 07:09:54 30° WSW 07:13:35 10° NW visible
01 Nov 5.2 07:04:15 10° S 07:08:03 32° WSW 07:11:46 10° NW visible
02 Nov 5.1 06:02:20 10° S 06:06:11 33° WSW 06:09:57 10° NW visible
03 Nov 5.0 06:00:25 10° S 06:04:19 35° WSW 06:08:07 10° NW visible
